| time (UTC) | temp F | wind direction | speed knots | gust knots | rain 1hr in | rain 24hr in | rain mn in | humidity % | barometer mb |
| 20260901112845 | 87 | 231 | 3.5 | 8.7 | 0.00 | 0.00 | 0.00 | 56 | 1014.8 |
| 20260901112115 | 87 | 299 | 2.6 | 8.7 | 0.00 | 0.00 | 0.00 | 59 | 1014.7 |
| 20260901111612 | 87 | 268 | 2.6 | 7.0 | 0.00 | 0.00 | 0.00 | 58 | 1014.8 |
| 20260901111113 | 87 | 280 | 4.3 | 9.6 | 0.00 | 0.00 | 0.00 | 61 | 1014.8 |
| 20260901110613 | 86 | 236 | 5.2 | 9.6 | 0.00 | 0.00 | 0.00 | 61 | 1014.8 |
| 20260901110113 | 86 | 267 | 4.3 | 9.6 | 0.00 | 0.00 | 0.00 | 60 | 1014.9 |
| 20260901105613 | 87 | 266 | 3.5 | 9.6 | 0.00 | 0.00 | 0.00 | 59 | 1014.9 |
| 20260901105113 | 87 | 217 | 3.5 | 9.6 | 0.00 | 0.00 | 0.00 | 59 | 1014.9 |
| 20260901104612 | 87 | 236 | 3.5 | 9.6 | 0.00 | 0.00 | 0.00 | 60 | 1014.9 |
| 20260901104112 | 87 | 231 | 4.3 | 9.6 | 0.00 | 0.00 | 0.00 | 62 | 1015.0 |
| 20260901103613 | 87 | 254 | 3.5 | 9.6 | 0.00 | 0.00 | 0.00 | 60 | 1015.1 |
| 20260901103113 | 87 | 284 | 2.6 | 7.8 | 0.00 | 0.00 | 0.00 | 58 | 1015.0 |
| 20260901102612 | 87 | 265 | 2.6 | 7.0 | 0.00 | 0.00 | 0.00 | 55 | 1015.1 |
| 20260901102110 | 87 | 204 | 2.6 | 7.0 | 0.00 | 0.00 | 0.00 | 57 | 1015.2 |
| 20260901101611 | 87 | 276 | 3.5 | 7.8 | 0.00 | 0.00 | 0.00 | 57 | 1015.2 |
| 20260901101110 | 86 | 274 | 3.5 | 8.7 | 0.00 | 0.00 | 0.00 | 55 | 1015.3 |
| 20260901100611 | 86 | 212 | 3.5 | 8.7 | 0.00 | 0.00 | 0.00 | 55 | 1015.4 |
| 20260901100107 | 85 | 245 | 4.3 | 7.8 | 0.00 | 0.00 | 0.00 | 54 | 1015.4 |
| 20260901095606 | 85 | 234 | 4.3 | 7.8 | 0.00 | 0.00 | 0.00 | 57 | 1015.4 |
| 20260901095107 | 85 | 324 | 4.3 | 7.8 | 0.00 | 0.00 | 0.00 | 56 | 1015.3 |
| 20260901094607 | 85 | 243 | 4.3 | 7.8 | 0.00 | 0.00 | 0.00 | 56 | 1015.3 |
| 20260901094107 | 85 | 207 | 4.3 | 7.8 | 0.00 | 0.00 | 0.00 | 59 | 1015.3 |
| 20260901093814 | 85 | 295 | 2.6 | 6.1 | 0.00 | 0.00 | 0.00 | 59 | 1015.2 |
| 20260901093656 | 85 | 262 | 3.5 | 7.0 | 0.00 | 0.00 | 0.00 | 60 | 1015.2 |
| 20260901092607 | 85 | 222 | 2.6 | 5.2 | 0.00 | 0.00 | 0.00 | 57 | 1015.3 |
| 20260901092107 | 85 | 255 | 1.7 | 4.3 | 0.00 | 0.00 | 0.00 | 59 | 1015.4 |
| 20260901091602 | 85 | 295 | 1.7 | 5.2 | 0.00 | 0.00 | 0.00 | 57 | 1015.5 |
| 20260901091102 | 84 | 231 | 2.6 | 6.1 | 0.00 | 0.00 | 0.00 | 56 | 1015.5 |
| 20260901090602 | 84 | 295 | 3.5 | 6.1 | 0.00 | 0.00 | 0.00 | 57 | 1015.5 |
| 20260901085602 | 84 | 350 | 2.6 | 5.2 | 0.00 | 0.00 | 0.00 | 58 | 1015.5 |
| 20260901085104 | 84 | 281 | 2.6 | 6.1 | 0.00 | 0.00 | 0.00 | 58 | 1015.5 |
| 20260901084103 | 84 | 280 | 2.6 | 5.2 | 0.00 | 0.00 | 0.00 | 60 | 1015.4 |
| 20260901083604 | 84 | 288 | 2.6 | 4.3 | 0.00 | 0.00 | 0.00 | 60 | 1015.4 |
| 20260901083059 | 84 | 270 | 1.7 | 5.2 | 0.00 | 0.00 | 0.00 | 58 | 1015.4 |
| 20260901082600 | 84 | 262 | 1.7 | 5.2 | 0.00 | 0.00 | 0.00 | 60 | 1015.4 |
| 20260901082057 | 83 | 296 | 1.7 | 3.5 | 0.00 | 0.00 | 0.00 | 63 | 1015.4 |
| 20260901081557 | 83 | 258 | 1.7 | 4.3 | 0.00 | 0.00 | 0.00 | 65 | 1015.4 |
| 20260901081056 | 83 | 276 | 2.6 | 4.3 | 0.00 | 0.00 | 0.00 | 65 | 1015.4 |
| 20260901080557 | 82 | 293 | 2.6 | 4.3 | 0.00 | 0.00 | 0.00 | 66 | 1015.5 |
| 20260901080057 | 82 | 293 | 2.6 | 4.3 | 0.00 | 0.00 | 0.00 | 68 | 1015.5 |
| 20260901075554 | 82 | 256 | 2.6 | 5.2 | 0.00 | 0.00 | 0.00 | 67 | 1015.5 |
| 20260901075055 | 82 | 238 | 2.6 | 6.1 | 0.00 | 0.00 | 0.00 | 67 | 1015.5 |
| 20260901074818 | 82 | 254 | 2.6 | 6.1 | 0.00 | 0.00 | 0.00 | 68 | 1015.5 |
| 20260901074054 | 81 | 269 | 2.6 | 5.2 | 0.00 | 0.00 | 0.00 | 69 | 1015.5 |
| 20260901073555 | 81 | 264 | 3.5 | 6.1 | 0.00 | 0.00 | 0.00 | 70 | 1015.5 |
| 20260901073054 | 81 | 261 | 3.5 | 7.0 | 0.00 | 0.00 | 0.00 | 71 | 1015.5 |
| 20260901072552 | 81 | 283 | 4.3 | 7.8 | 0.00 | 0.00 | 0.00 | 71 | 1015.5 |
| 20260901072052 | 81 | 260 | 3.5 | 7.8 | 0.00 | 0.00 | 0.00 | 71 | 1015.4 |
| 20260901071552 | 82 | 250 | 2.6 | 6.1 | 0.00 | 0.00 | 0.00 | 68 | 1015.4 |
| 20260901071045 | 82 | 250 | 2.6 | 6.1 | 0.00 | 0.00 | 0.00 | 67 | 1015.4 |
| 20260901070540 | 82 | 248 | 3.5 | 6.1 | 0.00 | 0.00 | 0.00 | 68 | 1015.3 |
| 20260901070033 | 82 | 260 | 3.5 | 6.1 | 0.00 | 0.00 | 0.00 | 68 | 1015.3 |
| 20260901065528 | 82 | 265 | 1.7 | 4.3 | 0.00 | 0.00 | 0.00 | 66 | 1015.2 |
| 20260901065022 | 83 | 268 | 0.9 | 3.5 | 0.00 | 0.00 | 0.00 | 62 | 1015.2 |
| 20260901064516 | 84 | 236 | 0.0 | 1.7 | 0.00 | 0.00 | 0.00 | 58 | 1015.2 |
| 20260901064010 | 84 | 163 | 0.0 | 0.9 | 0.00 | 0.00 | 0.00 | 60 | 1015.2 |
| 20260901063504 | 83 | 146 | 0.0 | 2.6 | 0.00 | 0.00 | 0.00 | 62 | 1015.1 |
| 20260901062957 | 83 | 79 | 0.9 | 2.6 | 0.00 | 0.00 | 0.00 | 62 | 1015.0 |
| 20260901062452 | 82 | 114 | 0.9 | 1.7 | 0.00 | 0.00 | 0.00 | 64 | 1015.1 |
| 20260901061946 | 81 | 112 | 0.9 | 2.6 | 0.00 | 0.00 | 0.00 | 66 | 1015.1 |
| 20260901061439 | 81 | 51 | 0.9 | 2.6 | 0.00 | 0.00 | 0.00 | 67 | 1015.1 |
| 20260901060934 | 81 | 30 | 0.9 | 2.6 | 0.00 | 0.00 | 0.00 | 68 | 1015.1 |
| 20260901060427 | 80 | 30 | 0.9 | 3.5 | 0.00 | 0.00 | 0.00 | 70 | 1015.2 |
| 20260901055922 | 79 | 19 | 0.9 | 3.5 | 0.00 | 0.00 | 0.00 | 72 | 1015.3 |
| 20260901055416 | 79 | 300 | 1.7 | 3.5 | 0.00 | 0.00 | 0.00 | 72 | 1015.3 |
| 20260901054910 | 78 | 296 | 2.6 | 3.5 | 0.00 | 0.00 | 0.00 | 73 | 1015.3 |
| 20260901054404 | 78 | 304 | 1.7 | 5.2 | 0.00 | 0.00 | 0.00 | 73 | 1015.3 |
| 20260901053857 | 78 | 6 | 1.7 | 5.2 | 0.00 | 0.00 | 0.00 | 74 | 1015.3 |
| 20260901053352 | 78 | 289 | 2.6 | 4.3 | 0.00 | 0.00 | 0.00 | 76 | 1015.3 |
| 20260901053103 | 77 | 297 | 2.6 | 5.2 | 0.00 | 0.00 | 0.00 | 76 | 1015.3 |
| 20260901052340 | 77 | 315 | 3.5 | 5.2 | 0.00 | 0.00 | 0.00 | 77 | 1015.3 |
| 20260901051834 | 77 | 301 | 3.5 | 5.2 | 0.00 | 0.00 | 0.00 | 78 | 1015.3 |
| 20260901051547 | 77 | 315 | 3.5 | 5.2 | 0.00 | 0.00 | 0.00 | 78 | 1015.3 |
| 20260901050823 | 77 | 293 | 3.5 | 5.2 | 0.00 | 0.00 | 0.00 | 78 | 1015.2 |
| 20260901050316 | 77 | 314 | 3.5 | 6.1 | 0.00 | 0.00 | 0.00 | 78 | 1015.3 |
| 20260901045810 | 77 | 281 | 2.6 | 6.1 | 0.00 | 0.00 | 0.00 | 78 | 1015.3 |
| 20260901045306 | 76 | 274 | 3.5 | 7.0 | 0.00 | 0.00 | 0.00 | 77 | 1015.2 |
| 20260901045006 | 77 | 294 | 2.6 | 7.8 | 0.00 | 0.00 | 0.00 | 77 | 1015.1 |
| 20260901044841 | 77 | 279 | 3.5 | 7.8 | 0.00 | 0.00 | 0.00 | 78 | 1015.1 |
| 20260901044007 | 77 | 255 | 3.5 | 5.2 | 0.00 | 0.00 | 0.00 | 78 | 1015.0 |
| 20260901043240 | 77 | 257 | 3.5 | 6.1 | 0.00 | 0.00 | 0.00 | 79 | 1014.9 |
| 20260901042734 | 77 | 277 | 2.6 | 6.1 | 0.00 | 0.00 | 0.00 | 78 | 1014.9 |
| 20260901042227 | 78 | 272 | 1.7 | 4.3 | 0.00 | 0.00 | 0.00 | 76 | 1014.8 |
| 20260901041945 | 77 | 253 | 0.9 | 1.7 | 0.00 | 0.00 | 0.00 | 76 | 1014.7 |
| 20260901041216 | 77 | 99 | 0.0 | 0.9 | 0.00 | 0.00 | 0.00 | 68 | 1014.7 |
| 20260901040710 | 77 | 99 | 0.0 | 0.9 | 0.00 | 0.00 | 0.00 | 68 | 1014.6 |
| 20260901040424 | 77 | 99 | 0.0 | 0.9 | 0.00 | 0.00 | 0.00 | 68 | 1014.5 |
| 20260901035658 | 77 | 99 | 0.0 | 0.9 | 0.00 | 0.00 | 0.00 | 67 | 1014.5 |
| 20260901035151 | 77 | 99 | 0.0 | 0.0 | 0.00 | 0.00 | 0.00 | 68 | 1014.3 |
| 20260901034645 | 77 | 99 | 0.0 | 0.0 | 0.00 | 0.00 | 0.00 | 68 | 1014.4 |
| 20260901034140 | 77 | 99 | 0.0 | 0.0 | 0.00 | 0.00 | 0.00 | 67 | 1014.3 |
| 20260901033633 | 77 | 99 | 0.0 | 0.9 | 0.00 | 0.00 | 0.00 | 67 | 1014.3 |
| 20260901033127 | 78 | 99 | 0.0 | 0.0 | 0.00 | 0.00 | 0.00 | 67 | 1014.3 |
| 20260901032845 | 78 | 99 | 0.0 | 1.7 | 0.00 | 0.00 | 0.00 | 67 | 1014.2 |
| 20260901032115 | 78 | 99 | 0.9 | 2.6 | 0.00 | 0.00 | 0.00 | 67 | 1014.2 |
| 20260901031609 | 78 | 99 | 1.7 | 2.6 | 0.00 | 0.00 | 0.00 | 67 | 1014.2 |
| 20260901031108 | 78 | 101 | 1.7 | 1.7 | 0.00 | 0.00 | 0.00 | 67 | 1014.2 |
| 20260901030608 | 77 | 99 | 0.9 | 1.7 | 0.00 | 0.00 | 0.00 | 67 | 1014.3 |
| 20260901030108 | 77 | 99 | 0.9 | 1.7 | 0.00 | 0.00 | 0.00 | 67 | 1014.3 |
| 20260901025608 | 77 | 94 | 0.9 | 1.7 | 0.00 | 0.00 | 0.00 | 68 | 1014.4 |
| 20260901025106 | 77 | 94 | 0.9 | 1.7 | 0.00 | 0.00 | 0.00 | 67 | 1014.5 |
| 20260901024603 | 77 | 94 | 0.9 | 1.7 | 0.00 | 0.00 | 0.00 | 68 | 1014.5 |
| 20260901024101 | 77 | 94 | 0.0 | 0.9 | 0.00 | 0.00 | 0.00 | 69 | 1014.4 |
| 20260901023600 | 77 | 94 | 0.0 | 0.9 | 0.00 | 0.00 | 0.00 | 69 | 1014.4 |
| 20260901023101 | 77 | 94 | 0.0 | 0.9 | 0.00 | 0.00 | 0.00 | 68 | 1014.4 |
| 20260901022600 | 77 | 94 | 0.0 | 0.9 | 0.00 | 0.00 | 0.00 | 68 | 1014.5 |
| 20260901022057 | 78 | 94 | 0.9 | 1.7 | 0.00 | 0.00 | 0.00 | 68 | 1014.4 |
| 20260901021558 | 78 | 94 | 0.9 | 1.7 | 0.00 | 0.00 | 0.00 | 68 | 1014.4 |
| 20260901021058 | 78 | 101 | 0.0 | 1.7 | 0.00 | 0.00 | 0.00 | 70 | 1014.4 |
| 20260901020558 | 78 | 94 | 0.0 | 1.7 | 0.00 | 0.00 | 0.00 | 69 | 1014.5 |
| 20260901020058 | 78 | 94 | 0.9 | 1.7 | 0.00 | 0.00 | 0.00 | 70 | 1014.6 |
| 20260901015556 | 78 | 94 | 0.9 | 1.7 | 0.00 | 0.00 | 0.00 | 70 | 1014.6 |
| 20260901015056 | 78 | 94 | 0.9 | 0.9 | 0.00 | 0.00 | 0.00 | 70 | 1014.6 |
| 20260901014553 | 78 | 89 | 0.0 | 0.9 | 0.00 | 0.00 | 0.00 | 70 | 1014.7 |
| 20260901014055 | 78 | 89 | 0.9 | 2.6 | 0.00 | 0.00 | 0.00 | 70 | 1014.7 |
| 20260901013554 | 78 | 89 | 1.7 | 2.6 | 0.00 | 0.00 | 0.00 | 70 | 1014.7 |
| 20260901013052 | 78 | 91 | 0.9 | 2.6 | 0.00 | 0.00 | 0.00 | 70 | 1014.9 |
| 20260901012552 | 78 | 95 | 0.9 | 1.7 | 0.00 | 0.00 | 0.00 | 70 | 1014.9 |
| 20260901012052 | 78 | 72 | 0.9 | 2.6 | 0.00 | 0.00 | 0.00 | 71 | 1014.9 |
| 20260901011550 | 78 | 72 | 0.9 | 2.6 | 0.00 | 0.00 | 0.00 | 71 | 1014.9 |
| 20260901011048 | 78 | 90 | 0.9 | 2.6 | 0.00 | 0.00 | 0.00 | 71 | 1014.9 |
| 20260901010548 | 78 | 104 | 0.9 | 2.6 | 0.00 | 0.00 | 0.00 | 71 | 1014.9 |
| 20260901010048 | 78 | 90 | 0.9 | 1.7 | 0.00 | 0.00 | 0.00 | 71 | 1015.0 |
| 20260901005545 | 78 | 101 | 0.0 | 1.7 | 0.00 | 0.00 | 0.00 | 71 | 1015.0 |
| 20260901005045 | 78 | 101 | 0.0 | 0.9 | 0.00 | 0.00 | 0.00 | 70 | 1015.1 |
| 20260901004801 | 78 | 101 | 0.9 | 0.9 | 0.00 | 0.00 | 0.00 | 70 | 1015.1 |
| 20260901004531 | 78 | 101 | 0.9 | 0.9 | 0.00 | 0.00 | 0.00 | 70 | 1015.1 |
| 20260901003543 | 78 | 101 | 0.0 | 0.9 | 0.00 | 0.00 | 0.00 | 70 | 1015.1 |
| 20260901003044 | 78 | 101 | 0.0 | 0.0 | 0.00 | 0.00 | 0.00 | 70 | 1015.1 |
| 20260901003032 | 78 | 101 | 0.0 | 0.9 | 0.00 | 0.00 | 0.00 | 70 | 1015.1 |
| 20260901002040 | 78 | 101 | 0.0 | 0.9 | 0.00 | 0.00 | 0.00 | 70 | 1015.1 |
| 20260901001539 | 78 | 101 | 0.0 | 0.0 | 0.00 | 0.00 | 0.00 | 70 | 1014.9 |
| 20260901001040 | 78 | 101 | 0.0 | 0.9 | 0.00 | 0.00 | 0.00 | 69 | 1014.8 |
| 20260901001023 | 78 | 101 | 0.9 | 2.6 | 0.00 | 0.00 | 0.00 | 69 | 1014.8 |
| 20260901000040 | 78 | 101 | 0.9 | 2.6 | 0.00 | 0.00 | 0.00 | 69 | 1014.7 |
| 20260831235539 | 78 | 89 | 0.9 | 2.6 | 0.00 | 0.00 | 0.00 | 69 | 1014.6 |
| 20260831235039 | 78 | 89 | 0.9 | 2.6 | 0.00 | 0.00 | 0.00 | 69 | 1014.7 |
| 20260831234540 | 78 | 82 | 0.9 | 2.6 | 0.00 | 0.00 | 0.00 | 69 | 1014.7 |
| 20260831234039 | 78 | 96 | 0.9 | 2.6 | 0.00 | 0.00 | 0.00 | 69 | 1014.8 |
| 20260831233539 | 78 | 95 | 0.9 | 1.7 | 0.00 | 0.00 | 0.00 | 69 | 1014.8 |
| 20260831233039 | 78 | 95 | 0.0 | 0.9 | 0.00 | 0.00 | 0.00 | 69 | 1014.9 |
| 20260831233033 | 78 | 95 | 0.0 | 1.7 | 0.00 | 0.00 | 0.00 | 69 | 1015.0 |
| 20260831232040 | 79 | 95 | 0.9 | 1.7 | 0.00 | 0.00 | 0.00 | 69 | 1014.9 |
| 20260831231539 | 79 | 102 | 0.9 | 2.6 | 0.00 | 0.00 | 0.00 | 68 | 1014.9 |
| 20260831231040 | 79 | 96 | 0.9 | 2.6 | 0.00 | 0.00 | 0.00 | 68 | 1014.9 |
| 20260831230539 | 79 | 85 | 0.9 | 1.7 | 0.00 | 0.00 | 0.00 | 68 | 1015.0 |
| 20260831230041 | 79 | 89 | 0.0 | 1.7 | 0.00 | 0.00 | 0.00 | 68 | 1015.0 |
| 20260831225534 | 79 | 89 | 0.0 | 1.7 | 0.00 | 0.00 | 0.00 | 68 | 1015.1 |
| 20260831225028 | 79 | 89 | 0.9 | 1.7 | 0.00 | 0.00 | 0.00 | 68 | 1015.1 |
| 20260831224521 | 79 | 89 | 0.9 | 1.7 | 0.00 | 0.00 | 0.00 | 68 | 1015.1 |
| 20260831224014 | 80 | 89 | 0.0 | 1.7 | 0.00 | 0.00 | 0.00 | 68 | 1015.2 |
| 20260831223510 | 80 | 89 | 0.0 | 0.9 | 0.00 | 0.00 | 0.00 | 68 | 1015.2 |
| 20260831223008 | 80 | 89 | 0.9 | 1.7 | 0.00 | 0.00 | 0.00 | 67 | 1015.1 |
| 20260831222507 | 80 | 89 | 1.7 | 1.7 | 0.00 | 0.00 | 0.00 | 67 | 1015.0 |
| 20260831222006 | 80 | 90 | 0.9 | 1.7 | 0.00 | 0.00 | 0.00 | 67 | 1015.0 |
| 20260831221721 | 80 | 108 | 0.9 | 2.6 | 0.00 | 0.00 | 0.00 | 67 | 1015.0 |
| 20260831221003 | 80 | 148 | 0.9 | 2.6 | 0.00 | 0.00 | 0.00 | 67 | 1015.0 |
| 20260831220459 | 80 | 105 | 0.0 | 1.7 | 0.00 | 0.00 | 0.00 | 68 | 1015.0 |
| 20260831215957 | 80 | 150 | 0.0 | 0.9 | 0.00 | 0.00 | 0.00 | 68 | 1015.1 |
| 20260831215455 | 80 | 150 | 0.0 | 0.9 | 0.00 | 0.00 | 0.00 | 68 | 1015.2 |
| 20260831214953 | 80 | 125 | 0.0 | 0.9 | 0.00 | 0.00 | 0.00 | 67 | 1015.3 |
| 20260831214451 | 80 | 125 | 0.0 | 1.7 | 0.00 | 0.00 | 0.00 | 67 | 1015.3 |
| 20260831213951 | 80 | 137 | 0.0 | 1.7 | 0.00 | 0.00 | 0.00 | 67 | 1015.3 |
| 20260831213451 | 80 | 105 | 0.0 | 0.9 | 0.00 | 0.00 | 0.00 | 66 | 1015.3 |
| 20260831212950 | 80 | 105 | 0.0 | 0.9 | 0.00 | 0.00 | 0.00 | 66 | 1015.3 |
| 20260831212449 | 80 | 105 | 0.0 | 0.9 | 0.00 | 0.00 | 0.00 | 66 | 1015.4 |
| 20260831211946 | 80 | 105 | 0.0 | 0.0 | 0.00 | 0.00 | 0.00 | 65 | 1015.4 |
| 20260831211711 | 80 | 105 | 0.0 | 0.9 | 0.00 | 0.00 | 0.00 | 65 | 1015.3 |
| 20260831210941 | 80 | 105 | 0.0 | 0.9 | 0.00 | 0.00 | 0.00 | 65 | 1015.3 |
| 20260831210439 | 80 | 105 | 0.0 | 0.9 | 0.00 | 0.00 | 0.00 | 65 | 1015.3 |
| 20260831210157 | 80 | 105 | 0.0 | 1.7 | 0.00 | 0.00 | 0.00 | 65 | 1015.3 |
| 20260831205435 | 80 | 105 | 0.0 | 1.7 | 0.00 | 0.00 | 0.00 | 65 | 1015.3 |
| 20260831205152 | 80 | 105 | 0.9 | 1.7 | 0.00 | 0.00 | 0.00 | 65 | 1015.4 |
| 20260831204427 | 80 | 105 | 0.0 | 0.9 | 0.00 | 0.00 | 0.00 | 65 | 1015.4 |
| 20260831203921 | 80 | 105 | 0.0 | 0.9 | 0.00 | 0.00 | 0.00 | 66 | 1015.4 |
| 20260831203414 | 80 | 105 | 0.0 | 1.7 | 0.00 | 0.00 | 0.00 | 66 | 1015.5 |
| 20260831202909 | 80 | 105 | 0.0 | 1.7 | 0.00 | 0.00 | 0.00 | 66 | 1015.5 |
| 20260831202403 | 80 | 105 | 0.0 | 1.7 | 0.00 | 0.00 | 0.00 | 66 | 1015.5 |
| 20260831201857 | 80 | 105 | 0.0 | 1.7 | 0.00 | 0.00 | 0.00 | 67 | 1015.5 |
| 20260831201351 | 80 | 105 | 0.9 | 1.7 | 0.00 | 0.00 | 0.00 | 67 | 1015.4 |
| 20260831200844 | 80 | 124 | 0.0 | 0.9 | 0.00 | 0.00 | 0.00 | 67 | 1015.3 |
| 20260831200338 | 80 | 145 | 0.0 | 0.9 | 0.00 | 0.00 | 0.00 | 68 | 1015.2 |
| 20260831195834 | 80 | 210 | 0.0 | 1.7 | 0.00 | 0.00 | 0.00 | 68 | 1015.1 |
| 20260831195326 | 80 | 181 | 0.0 | 1.7 | 0.00 | 0.00 | 0.00 | 67 | 1015.1 |
| 20260831194821 | 80 | 152 | 0.0 | 1.7 | 0.00 | 0.00 | 0.00 | 67 | 1015.2 |
| 20260831194314 | 80 | 211 | 0.9 | 2.6 | 0.00 | 0.00 | 0.00 | 67 | 1015.2 |
| 20260831193809 | 80 | 137 | 0.9 | 3.5 | 0.00 | 0.00 | 0.00 | 67 | 1015.1 |
| 20260831193303 | 80 | 151 | 0.9 | 3.5 | 0.00 | 0.00 | 0.00 | 67 | 1015.0 |
| 20260831192757 | 80 | 91 | 0.9 | 3.5 | 0.00 | 0.00 | 0.00 | 68 | 1014.9 |
| 20260831192513 | 80 | 184 | 0.9 | 4.3 | 0.00 | 0.00 | 0.00 | 68 | 1015.0 |
| 20260831191746 | 80 | 211 | 1.7 | 4.3 | 0.00 | 0.00 | 0.00 | 68 | 1015.0 |
| 20260831191505 | 80 | 135 | 0.9 | 3.5 | 0.00 | 0.00 | 0.00 | 68 | 1015.0 |
| 20260831190732 | 80 | 122 | 1.7 | 5.2 | 0.00 | 0.00 | 0.00 | 68 | 1015.0 |
| 20260831190227 | 80 | 171 | 2.6 | 5.2 | 0.00 | 0.00 | 0.00 | 68 | 1014.8 |
| 20260831185720 | 81 | 81 | 2.6 | 5.2 | 0.00 | 0.00 | 0.00 | 67 | 1014.9 |
| 20260831185215 | 81 | 149 | 1.7 | 6.1 | 0.00 | 0.00 | 0.00 | 67 | 1014.9 |
| 20260831184708 | 81 | 84 | 1.7 | 6.1 | 0.00 | 0.00 | 0.00 | 66 | 1014.9 |
| 20260831184202 | 81 | 136 | 2.6 | 5.2 | 0.00 | 0.00 | 0.00 | 66 | 1014.8 |
| 20260831183656 | 81 | 219 | 2.6 | 6.1 | 0.00 | 0.00 | 0.00 | 66 | 1014.8 |
| 20260831183410 | 81 | 154 | 2.6 | 7.8 | 0.00 | 0.00 | 0.00 | 66 | 1014.8 |
| 20260831182644 | 81 | 75 | 1.7 | 7.8 | 0.00 | 0.00 | 0.00 | 65 | 1014.8 |
| 20260831182138 | 81 | 108 | 0.9 | 6.1 | 0.00 | 0.00 | 0.00 | 65 | 1014.7 |
| 20260831181633 | 81 | 146 | 1.7 | 5.2 | 0.00 | 0.00 | 0.00 | 65 | 1014.7 |
| 20260831181127 | 81 | 133 | 2.6 | 6.1 | 0.00 | 0.00 | 0.00 | 65 | 1014.7 |
| 20260831180620 | 81 | 143 | 3.5 | 8.7 | 0.00 | 0.00 | 0.00 | 65 | 1014.7 |
| 20260831180115 | 81 | 274 | 2.6 | 8.7 | 0.00 | 0.00 | 0.00 | 65 | 1014.6 |
| 20260831175609 | 82 | 172 | 1.7 | 7.0 | 0.00 | 0.00 | 0.00 | 65 | 1014.6 |
| 20260831175102 | 82 | 216 | 2.6 | 7.0 | 0.00 | 0.00 | 0.00 | 65 | 1014.5 |
| 20260831174823 | 82 | 204 | 2.6 | 7.8 | 0.00 | 0.00 | 0.00 | 65 | 1014.4 |
| 20260831174051 | 82 | 148 | 2.6 | 7.8 | 0.00 | 0.00 | 0.00 | 65 | 1014.3 |
| 20260831173545 | 82 | 216 | 2.6 | 6.1 | 0.00 | 0.00 | 0.00 | 64 | 1014.3 |
| 20260831173039 | 82 | 118 | 2.6 | 6.1 | 0.00 | 0.00 | 0.00 | 65 | 1014.3 |
| 20260831172533 | 82 | 129 | 2.6 | 7.8 | 0.00 | 0.00 | 0.00 | 65 | 1014.3 |
| 20260831172251 | 82 | 214 | 2.6 | 7.8 | 0.00 | 0.00 | 0.00 | 65 | 1014.2 |
| 20260831171520 | 82 | 89 | 1.7 | 6.1 | 0.00 | 0.00 | 0.00 | 65 | 1014.1 |
| 20260831171014 | 83 | 84 | 2.6 | 6.1 | 0.00 | 0.00 | 0.00 | 65 | 1014.0 |
| 20260831170508 | 83 | 101 | 2.6 | 6.1 | 0.00 | 0.00 | 0.00 | 65 | 1014.0 |
| 20260831170004 | 83 | 144 | 2.6 | 7.0 | 0.00 | 0.00 | 0.00 | 64 | 1014.0 |
| 20260831165456 | 83 | 171 | 3.5 | 9.6 | 0.00 | 0.00 | 0.00 | 63 | 1014.0 |
| 20260831165215 | 83 | 107 | 3.5 | 9.6 | 0.00 | 0.00 | 0.00 | 63 | 1014.0 |
| 20260831164705 | 83 | 205 | 3.5 | 7.8 | 0.00 | 0.00 | 0.00 | 63 | 1013.9 |
| 20260831163938 | 84 | 234 | 3.5 | 7.0 | 0.00 | 0.00 | 0.00 | 63 | 1013.9 |
| 20260831163433 | 84 | 196 | 3.5 | 7.8 | 0.00 | 0.00 | 0.00 | 63 | 1013.8 |
| 20260831162927 | 84 | 236 | 3.5 | 8.7 | 0.00 | 0.00 | 0.00 | 62 | 1013.8 |
| 20260831162425 | 85 | 182 | 4.3 | 8.7 | 0.00 | 0.00 | 0.00 | 60 | 1013.8 |
| 20260831161925 | 85 | 143 | 3.5 | 8.7 | 0.00 | 0.00 | 0.00 | 60 | 1013.7 |
| 20260831161644 | 85 | 198 | 3.5 | 8.7 | 0.00 | 0.00 | 0.00 | 60 | 1013.6 |
| 20260831161155 | 86 | 141 | 3.5 | 7.0 | 0.00 | 0.00 | 0.00 | 59 | 1013.7 |
| 20260831160643 | 86 | 188 | 4.3 | 8.7 | 0.00 | 0.00 | 0.00 | 59 | 1013.7 |
| 20260831155925 | 86 | 122 | 4.3 | 8.7 | 0.00 | 0.00 | 0.00 | 59 | 1013.7 |
| 20260831155424 | 86 | 173 | 3.5 | 8.7 | 0.00 | 0.00 | 0.00 | 59 | 1013.6 |
| 20260831154925 | 87 | 245 | 3.5 | 8.7 | 0.00 | 0.00 | 0.00 | 58 | 1013.7 |
| 20260831154425 | 87 | 236 | 4.3 | 8.7 | 0.00 | 0.00 | 0.00 | 57 | 1013.8 |
| 20260831153925 | 87 | 176 | 4.3 | 8.7 | 0.00 | 0.00 | 0.00 | 58 | 1013.7 |
| 20260831153425 | 88 | 145 | 2.6 | 7.0 | 0.00 | 0.00 | 0.00 | 57 | 1013.8 |
| 20260831152925 | 88 | 224 | 3.5 | 8.7 | 0.00 | 0.00 | 0.00 | 56 | 1013.8 |
| 20260831152425 | 88 | 205 | 3.5 | 8.7 | 0.00 | 0.00 | 0.00 | 56 | 1013.8 |
| 20260831151925 | 88 | 122 | 4.3 | 9.6 | 0.00 | 0.00 | 0.00 | 54 | 1013.8 |
| 20260831151425 | 88 | 192 | 4.3 | 9.6 | 0.00 | 0.00 | 0.00 | 53 | 1013.8 |
| 20260831150925 | 88 | 235 | 4.3 | 9.6 | 0.00 | 0.00 | 0.00 | 52 | 1013.9 |
| 20260831150425 | 89 | 243 | 3.5 | 9.6 | 0.00 | 0.00 | 0.00 | 51 | 1013.9 |
| 20260831145925 | 89 | 245 | 3.5 | 8.7 | 0.00 | 0.00 | 0.00 | 51 | 1013.8 |
| 20260831145645 | 89 | 99 | 3.5 | 8.7 | 0.00 | 0.00 | 0.00 | 51 | 1013.8 |
| 20260831144926 | 89 | 201 | 2.6 | 7.8 | 0.00 | 0.00 | 0.00 | 50 | 1013.8 |
| 20260831144425 | 89 | 237 | 3.5 | 11.3 | 0.00 | 0.00 | 0.00 | 51 | 1013.8 |
| 20260831143925 | 89 | 176 | 4.3 | 11.3 | 0.00 | 0.00 | 0.00 | 51 | 1013.9 |
| 20260831143425 | 89 | 211 | 4.3 | 9.6 | 0.00 | 0.00 | 0.00 | 52 | 1013.9 |
| 20260831142923 | 89 | 212 | 5.2 | 11.3 | 0.00 | 0.00 | 0.00 | 52 | 1013.9 |
| 20260831142423 | 89 | 290 | 4.3 | 11.3 | 0.00 | 0.00 | 0.00 | 51 | 1014.0 |
| 20260831141922 | 89 | 217 | 4.3 | 9.6 | 0.00 | 0.00 | 0.00 | 50 | 1014.0 |
| 20260831141421 | 89 | 207 | 3.5 | 8.7 | 0.00 | 0.00 | 0.00 | 49 | 1014.0 |
| 20260831140921 | 90 | 186 | 3.5 | 8.7 | 0.00 | 0.00 | 0.00 | 49 | 1014.0 |
| 20260831140422 | 89 | 201 | 3.5 | 8.7 | 0.00 | 0.00 | 0.00 | 50 | 1014.1 |
| 20260831135919 | 90 | 267 | 3.5 | 7.0 | 0.00 | 0.00 | 0.00 | 48 | 1014.1 |
| 20260831135417 | 90 | 289 | 3.5 | 9.6 | 0.00 | 0.00 | 0.00 | 48 | 1014.1 |
| 20260831134917 | 90 | 256 | 2.6 | 9.6 | 0.00 | 0.00 | 0.00 | 47 | 1014.1 |
| 20260831134417 | 90 | 171 | 3.5 | 7.8 | 0.00 | 0.00 | 0.00 | 48 | 1014.2 |
| 20260831133919 | 89 | 213 | 4.3 | 9.6 | 0.00 | 0.00 | 0.00 | 49 | 1014.2 |
| 20260831133414 | 89 | 205 | 4.3 | 9.6 | 0.00 | 0.00 | 0.00 | 47 | 1014.4 |
| 20260831132915 | 89 | 230 | 4.3 | 9.6 | 0.00 | 0.00 | 0.00 | 49 | 1014.3 |
| 20260831132413 | 89 | 191 | 5.2 | 9.6 | 0.00 | 0.00 | 0.00 | 49 | 1014.3 |
| 20260831131912 | 89 | 164 | 5.2 | 11.3 | 0.00 | 0.00 | 0.00 | 48 | 1014.3 |
| 20260831131412 | 89 | 217 | 4.3 | 11.3 | 0.00 | 0.00 | 0.00 | 47 | 1014.4 |
| 20260831130913 | 90 | 203 | 2.6 | 8.7 | 0.00 | 0.00 | 0.00 | 47 | 1014.4 |
| 20260831130411 | 90 | 225 | 2.6 | 6.1 | 0.00 | 0.00 | 0.00 | 48 | 1014.5 |
| 20260831130351 | 90 | 257 | 2.6 | 9.6 | 0.00 | 0.00 | 0.00 | 49 | 1014.6 |
| 20260831125409 | 89 | 215 | 2.6 | 9.6 | 0.00 | 0.00 | 0.00 | 49 | 1014.6 |
| 20260831124908 | 89 | 242 | 3.5 | 8.7 | 0.00 | 0.00 | 0.00 | 51 | 1014.6 |
| 20260831124408 | 89 | 212 | 4.3 | 8.7 | 0.00 | 0.00 | 0.00 | 51 | 1014.7 |
| 20260831123908 | 88 | 103 | 4.3 | 8.7 | 0.00 | 0.00 | 0.00 | 53 | 1014.8 |
| 20260831123408 | 89 | 185 | 4.3 | 8.7 | 0.00 | 0.00 | 0.00 | 52 | 1014.8 |
| 20260831122904 | 88 | 212 | 4.3 | 9.6 | 0.00 | 0.00 | 0.00 | 53 | 1014.9 |
| 20260831122405 | 88 | 193 | 4.3 | 9.6 | 0.00 | 0.00 | 0.00 | 51 | 1014.9 |
| 20260831121905 | 88 | 257 | 3.5 | 8.7 | 0.00 | 0.00 | 0.00 | 53 | 1015.0 |
| 20260831121629 | 87 | 192 | 4.3 | 10.4 | 0.00 | 0.00 | 0.00 | 56 | 1015.0 |
| 20260831120904 | 87 | 191 | 4.3 | 10.4 | 0.00 | 0.00 | 0.00 | 57 | 1015.1 |
| 20260831120405 | 87 | 203 | 5.2 | 9.6 | 0.00 | 0.00 | 0.00 | 58 | 1015.1 |
| 20260831115905 | 87 | 183 | 5.2 | 9.6 | 0.00 | 0.00 | 0.00 | 58 | 1015.2 |
| 20260831115404 | 87 | 231 | 4.3 | 9.6 | 0.00 | 0.00 | 0.00 | 56 | 1015.3 |
| 20260831114905 | 87 | 255 | 5.2 | 10.4 | 0.00 | 0.00 | 0.00 | 57 | 1015.3 |
| 20260831114616 | 87 | 248 | 4.3 | 10.4 | 0.00 | 0.00 | 0.00 | 57 | 1015.4 |
| 20260831113857 | 87 | 245 | 4.3 | 8.7 | 0.00 | 0.00 | 0.00 | 57 | 1015.4 |
| 20260831113356 | 87 | 277 | 4.3 | 9.6 | 0.00 | 0.00 | 0.00 | 57 | 1015.4 |